Regional Weather Roundup
Issued by NWS

Home | Current Version | Previous Version | Graphics & Text | Print | Product List | Glossary On
Versions: 1 2 3 4 5 6 7 8 9 10 11 12 13 14 15 16 17 18 19 20 21 22 23 24 25 26 27 28 29 30 31 32 33 34 35 36 37 38 39 40 41 42 43 44 45 46 47 48 49 50
302
ASUS45 KTFX 281410
RWRMT
MONTANA REGIONAL WEATHER ROUNDUP
NATIONAL WEATHER SERVICE GREAT FALLS MT
800 AM MDT THU JUL 28 2016

NOTE: "FAIR" INDICATES FEW OR NO CLOUDS BELOW 12000 FEET WITH NO
SIGNIFICANT WEATHER AND/OR OBSTRUCTIONS TO VISIBILITY.

MTZ001>007-043-281500-
WEST OF THE DIVIDE

CITY           SKY/WX    TMP DP  RH WIND       PRES   REMARKS
KALISPELL      SUNNY     64  55  72 NE12      30.16S
MISSOULA       SUNNY     65  49  56 NW3       30.18R
BUTTE          SUNNY     54  45  71 E3        30.29S
MULLAN PASS    SUNNY     64  45  49 CALM      30.29R
ANACONDA         N/A     59  46  63 S5        30.25F
EUREKA           N/A     61  54  77 CALM      30.20S
HAMILTON         N/A     61  48  63 CALM      30.19S
LIBBY            N/A     59  50  72 E3        30.18S
PLAINS           N/A     58  54  86 CALM      30.15R
RONAN            N/A     63  55  75 CALM      30.20R
$$

MTZ008-052>055-281500-
SOUTHWEST MONTANA

CITY           SKY/WX    TMP DP  RH WIND       PRES   REMARKS
BOZEMAN        MOSUNNY   61  55  81 CALM      30.24S
DILLON         SUNNY     57  49  74 SW5       30.25S
W YELLOWSTONE  SUNNY     50  45  81 CALM      30.35S
ENNIS          SUNNY     59  48  67 CALM      30.32R
TWIN BRIDGES     N/A     57  46  66 E3        30.21S
$$

MTZ009-010-012-014-046-048-049-054-281500-
EAST SLOPES AND CENTRAL MONTANA

CITY           SKY/WX    TMP DP  RH WIND       PRES   REMARKS
CUT BANK       SUNNY     58  56  93 CALM      30.21R
GREAT FALLS    SUNNY     65  51  60 E3        30.20F
MALMSTROM AFB  SUNNY     62  54  76 S3        30.20S
HELENA         MOSUNNY   62  51  67 CALM      30.20F
CHOTEAU          N/A     63  54  72 W3        30.23S
CONRAD           N/A     59  59 100 S3        30.20S
$$

MTZ011-013-016-021-045-047-050-051-281500-
NORTH CENTRAL MONTANA

CITY           SKY/WX    TMP DP  RH WIND       PRES   REMARKS
HAVRE          CLOUDY    63  56  78 CALM      30.18R
N BAR RANCH      N/A     61  54  77 CALM      30.25F
CHINOOK          N/A     63  59  88 E5        30.17S
$$

MTZ017>020-022>027-061-062-281500-
NORTHEAST MONTANA

CITY           SKY/WX    TMP DP  RH WIND       PRES   REMARKS
GLASGOW        PTSUNNY   60  58  92 NE9       30.17S
JORDAN           N/A     62  60  93 N8        30.17S
SIDNEY         MOSUNNY   67  61  81 NE12      30.13F
WOLF POINT     PTSUNNY   66  61  84 E9        30.16F
PLENTYWOOD       N/A     55  55 100 W3        30.20R VSB 0
SCOBEY           N/A     54  42  63 CALM      30.17S VSB 0
$$

MTZ028>42-056>058-281500-
SOUTHCENTRAL AND SOUTHEAST MONTANA

CITY           SKY/WX    TMP DP  RH WIND       PRES   REMARKS
BAKER          MOSUNNY   63  60  90 E10       30.15R
BILLINGS       MOSUNNY   61  58  90 NW8       30.20R
LIVINGSTON     SUNNY     60  54  80 W8        30.25S
MILES CITY     CLOUDY    65  59  81 N7        30.14S
EKALAKA          N/A     64  59  84 E10       30.11S
FORSYTH          N/A     63  63 100 W5        30.15S
LAUREL           N/A     63  55  75 NW3       30.17R
ROUNDUP          N/A     63  56  78 MISG      30.11R
$$

REGIONAL REPORTS...DAKOTAS

CITY           SKY/WX    TMP DP  RH WIND       PRES   REMARKS
WILLISTON      SUNNY     65  59  81 NE6       30.18R
MINOT          CLOUDY    67  55  65 E5        30.17R
DICKINSON      CLOUDY    59  58  96 E12       30.14S
CROSBY           N/A     57  57 100 CALM      30.21S
BISMARCK       CLOUDY    64  58  80 E6        30.16R
GRAND FORKS    MOSUNNY   66  57  72 NE8       30.12S
FARGO          MOSUNNY   68  62  81 N3        30.08S
BUFFALO SD       N/A     62  61  96 E9        30.07F
RAPID CITY     PTSUNNY   66  60  81 NE5       30.12S
$$

REGIONAL REPORTS...WYOMING/IDAHO/WASHINGTON

CITY           SKY/WX    TMP DP  RH WIND       PRES   REMARKS
GILLETTE       CLOUDY    59  59 100 S8        30.18F
SHERIDAN       CLOUDY    62  55  77 NE6       30.17F
BUFFALO WY     CLOUDY    60  55  83 S3        30.23F
CODY           CLOUDY    63  52  67 W5        30.27F
YELLOWSTONE LA   N/A     49  46  90 CALM      30.41S
IDAHO FALLS    SUNNY     62  45  53 N7        30.19R
SALMON         SUNNY     55  45  67 CALM      30.18R
BOISE          SUNNY     71  46  40 CALM      30.07R
SPOKANE        MOSUNNY   71  52  50 NE6       30.10R
$$

REGIONAL REPORTS...ALBERTA

CITY           SKY/WX    TMP DP  RH WIND       PRES   REMARKS
EDMONTON       MOSUNNY   64  57  77 SW7       30.12S
CALGARY        MOSUNNY   59  52  77 CALM      30.19R
LETHBRIDGE     PTSUNNY   59  57  94 W5        30.17S
MEDICINE HAT   PTSUNNY   81  59  47 S3        30.16S
WATERTON GATE    N/A     55  50  82 SW7         N/A
CARDSTON         N/A     55  52  88 S2          N/A
MILK RIVER       N/A     63  55  77 W5          N/A
ONEFOUR          N/A     63  59  88 E9          N/A
$$

REGIONAL REPORTS...SASKATCHEWAN

CITY           SKY/WX    TMP DP  RH WIND       PRES   REMARKS
SWIFT CURRENT  SUNNY     63  55  77 SW7       30.19R
REGINA         MOSUNNY   61  55  82 S7        30.18S
SASKATOON      MOSUNNY   64  55  72 SW6       30.17R
VAL MARIE        N/A     59  57  94 NE5         N/A
ROCKGLEN         N/A     61  57  88 SW5         N/A
$$




USA.gov is the U.S. government's official web portal to all federal, state and local government web resources and services.